Terminal Aerodrome Forecast
Issued by NWS Grand Forks, ND

Home | Current Version | Previous Version | Text Only | Print | Product List | Glossary On
Versions: 1 2 3 4 5 6 7 8 9 10 11 12 13 14 15 16
000
FTUS43 KFGF 171700
TAFGFK
TAF
KGFK 171739Z 1718/1818 34020G28KT P6SM OVC013
      TEMPO 1718/1722 OVC009
     FM180000 36011KT P6SM OVC025=

USA.gov is the U.S. government's official web portal to all federal, state and local government web resources and services.